Time,TemperatureF,DewpointF,PressureIn,WindDirection,WindDirectionDegrees,WindSpeedMPH,WindSpeedGustMPH,Humidity,HourlyPrecipIn,Conditions,Clouds,dailyrainin,SoftwareType,DateUTC
2013-06-16 00:02:00,67.6,65.2,29.88,SW,223,8.0,8.0,92,0.00,,,0.00,Wunderground v.1.15,2013-06-16 05:02:00,
2013-06-16 00:08:00,67.5,65.1,29.88,SW,218,5.0,8.0,92,0.00,,,0.00,Wunderground v.1.15,2013-06-16 05:08:00,
2013-06-16 00:14:00,67.3,64.9,29.87,WSW,237,6.0,6.0,92,0.00,,,0.00,Wunderground v.1.15,2013-06-16 05:14:00,
2013-06-16 00:20:00,67.2,65.1,29.88,SW,226,4.0,6.0,93,0.00,,,0.00,Wunderground v.1.15,2013-06-16 05:20:00,
2013-06-16 00:25:00,67.1,65.0,29.88,WSW,251,4.0,5.0,93,0.00,,,0.00,Wunderground v.1.15,2013-06-16 05:25:00,
2013-06-16 00:30:00,67.1,65.0,29.87,WSW,238,7.0,7.0,93,0.00,,,0.00,Wunderground v.1.15,2013-06-16 05:30:00,
2013-06-16 00:36:00,67.1,65.0,29.87,SW,232,3.0,6.0,93,0.00,,,0.00,Wunderground v.1.15,2013-06-16 05:36:00,
2013-06-16 00:42:00,67.0,64.9,29.87,SW,220,5.0,5.0,93,0.00,,,0.00,Wunderground v.1.15,2013-06-16 05:42:00,
2013-06-16 00:48:00,66.9,64.8,29.86,WSW,241,4.0,7.0,93,0.00,,,0.00,Wunderground v.1.15,2013-06-16 05:48:00,
2013-06-16 00:54:00,66.9,64.8,29.86,SW,235,6.0,7.0,93,0.00,,,0.00,Wunderground v.1.15,2013-06-16 05:54:00,
2013-06-16 01:00:00,66.8,65.0,29.86,SSW,210,4.0,6.0,94,0.00,,,0.00,Wunderground v.1.15,2013-06-16 06:00:00,
2013-06-16 01:05:00,66.7,64.9,29.86,SW,221,5.0,7.0,94,0.00,,,0.00,Wunderground v.1.15,2013-06-16 06:05:00,
2013-06-16 01:12:00,66.6,64.8,29.86,SW,215,6.0,6.0,94,0.00,,,0.00,Wunderground v.1.15,2013-06-16 06:12:00,
2013-06-16 01:18:00,66.5,64.7,29.86,SW,217,5.0,6.0,94,0.00,,,0.00,Wunderground v.1.15,2013-06-16 06:18:00,
2013-06-16 01:23:00,66.4,64.6,29.86,SW,214,3.0,5.0,94,0.00,,,0.00,Wunderground v.1.15,2013-06-16 06:23:00,
2013-06-16 01:28:00,66.3,64.5,29.86,SW,230,5.0,6.0,94,0.00,,,0.00,Wunderground v.1.15,2013-06-16 06:28:00,
2013-06-16 01:34:00,66.2,64.4,29.86,SW,225,5.0,5.0,94,0.00,,,0.00,Wunderground v.1.15,2013-06-16 06:34:00,
2013-06-16 01:40:00,66.1,64.3,29.86,SSW,213,4.0,7.0,94,0.00,,,0.00,Wunderground v.1.15,2013-06-16 06:40:00,
2013-06-16 01:45:00,66.0,64.5,29.86,SW,214,7.0,7.0,95,0.00,,,0.00,Wunderground v.1.15,2013-06-16 06:45:00,
2013-06-16 01:52:00,65.9,64.4,29.86,SW,221,6.0,6.0,95,0.00,,,0.00,Wunderground v.1.15,2013-06-16 06:52:00,
2013-06-16 01:58:00,66.0,64.5,29.86,SSW,211,4.0,9.0,95,0.00,,,0.00,Wunderground v.1.15,2013-06-16 06:58:00,
2013-06-16 02:03:00,66.0,64.5,29.86,WSW,240,8.0,9.0,95,0.00,,,0.00,Wunderground v.1.15,2013-06-16 07:03:00,
2013-06-16 02:08:00,65.9,64.4,29.86,WSW,248,5.0,9.0,95,0.00,,,0.00,Wunderground v.1.15,2013-06-16 07:08:00,
2013-06-16 02:13:00,65.9,64.4,29.86,WSW,248,4.0,5.0,95,0.00,,,0.00,Wunderground v.1.15,2013-06-16 07:13:00,
2013-06-16 02:18:00,65.9,64.4,29.86,WSW,247,5.0,8.0,95,0.00,,,0.00,Wunderground v.1.15,2013-06-16 07:18:00,
2013-06-16 02:23:00,65.8,64.3,29.86,West,259,4.0,5.0,95,0.00,,,0.00,Wunderground v.1.15,2013-06-16 07:23:00,
2013-06-16 02:28:00,65.8,64.3,29.85,WSW,248,4.0,7.0,95,0.00,,,0.00,Wunderground v.1.15,2013-06-16 07:28:00,
2013-06-16 02:33:00,65.8,64.6,29.86,WSW,258,6.0,7.0,96,0.00,,,0.00,Wunderground v.1.15,2013-06-16 07:33:00,
2013-06-16 02:38:00,65.9,64.4,29.86,West,259,5.0,7.0,95,0.00,,,0.00,Wunderground v.1.15,2013-06-16 07:38:00,
2013-06-16 02:43:00,65.9,64.4,29.85,WSW,257,5.0,6.0,95,0.00,,,0.00,Wunderground v.1.15,2013-06-16 07:43:00,
2013-06-16 02:48:00,65.9,64.7,29.86,West,268,6.0,8.0,96,0.00,,,0.00,Wunderground v.1.15,2013-06-16 07:48:00,
2013-06-16 02:53:00,66.0,64.8,29.85,West,265,5.0,8.0,96,0.00,,,0.00,Wunderground v.1.15,2013-06-16 07:53:00,
2013-06-16 02:58:00,66.1,64.9,29.85,WSW,255,8.0,11.0,96,0.00,,,0.00,Wunderground v.1.15,2013-06-16 07:58:00,
2013-06-16 03:03:00,66.2,65.0,29.85,West,259,7.0,9.0,96,0.00,,,0.00,Wunderground v.1.15,2013-06-16 08:03:00,
2013-06-16 03:08:00,66.3,65.1,29.85,West,263,5.0,12.0,96,0.00,,,0.00,Wunderground v.1.15,2013-06-16 08:08:00,
2013-06-16 03:13:00,66.3,65.1,29.85,WSW,240,8.0,9.0,96,0.00,,,0.00,Wunderground v.1.15,2013-06-16 08:13:00,
2013-06-16 03:18:00,66.3,64.8,29.85,WSW,250,9.0,12.0,95,0.00,,,0.00,Wunderground v.1.15,2013-06-16 08:18:00,
2013-06-16 03:23:00,66.3,64.8,29.85,WSW,256,6.0,10.0,95,0.00,,,0.00,Wunderground v.1.15,2013-06-16 08:23:00,
2013-06-16 03:28:00,66.3,64.8,29.86,West,269,9.0,10.0,95,0.00,,,0.00,Wunderground v.1.15,2013-06-16 08:28:00,
2013-06-16 03:33:00,66.3,64.8,29.86,West,261,7.0,8.0,95,0.00,,,0.00,Wunderground v.1.15,2013-06-16 08:33:00,
2013-06-16 03:38:00,66.3,64.8,29.86,West,269,8.0,10.0,95,0.00,,,0.00,Wunderground v.1.15,2013-06-16 08:38:00,
2013-06-16 03:43:00,66.3,64.8,29.86,West,263,8.0,9.0,95,0.00,,,0.00,Wunderground v.1.15,2013-06-16 08:43:00,
2013-06-16 03:48:00,66.2,64.7,29.85,WSW,257,5.0,10.0,95,0.00,,,0.00,Wunderground v.1.15,2013-06-16 08:48:00,
2013-06-16 03:53:00,66.2,64.7,29.86,West,269,5.0,7.0,95,0.00,,,0.00,Wunderground v.1.15,2013-06-16 08:53:00,
2013-06-16 03:58:00,66.2,64.7,29.86,West,259,4.0,8.0,95,0.00,,,0.00,Wunderground v.1.15,2013-06-16 08:58:00,
2013-06-16 04:03:00,66.2,64.7,29.86,West,269,6.0,11.0,95,0.00,,,0.00,Wunderground v.1.15,2013-06-16 09:03:00,
2013-06-16 04:08:00,66.2,64.7,29.86,WSW,257,8.0,11.0,95,0.00,,,0.00,Wunderground v.1.15,2013-06-16 09:08:00,
2013-06-16 04:13:00,66.2,64.7,29.86,West,277,5.0,9.0,95,0.00,,,0.00,Wunderground v.1.15,2013-06-16 09:13:00,
2013-06-16 04:18:00,66.2,64.7,29.86,West,281,5.0,10.0,95,0.00,,,0.00,Wunderground v.1.15,2013-06-16 09:18:00,
2013-06-16 04:23:00,66.2,64.7,29.86,West,265,8.0,8.0,95,0.00,,,0.00,Wunderground v.1.15,2013-06-16 09:23:00,
2013-06-16 04:28:00,66.2,64.7,29.86,West,266,6.0,9.0,95,0.00,,,0.00,Wunderground v.1.15,2013-06-16 09:28:00,
2013-06-16 04:42:00,66.2,65.0,29.87,West,268,7.0,7.0,96,0.00,,,0.00,Wunderground v.1.15,2013-06-16 09:42:00,
2013-06-16 04:47:00,66.2,65.0,29.86,West,265,6.0,10.0,96,0.00,,,0.00,Wunderground v.1.15,2013-06-16 09:47:00,
2013-06-16 04:54:00,66.2,64.7,29.86,WSW,257,5.0,6.0,95,0.00,,,0.00,Wunderground v.1.15,2013-06-16 09:54:00,
2013-06-16 04:59:00,66.1,64.6,29.87,West,269,5.0,10.0,95,0.00,,,0.00,Wunderground v.1.15,2013-06-16 09:59:00,
2013-06-16 05:04:00,66.0,64.5,29.87,West,265,3.0,7.0,95,0.00,,,0.00,Wunderground v.1.15,2013-06-16 10:04:00,
2013-06-16 05:09:00,65.9,64.4,29.86,NW,305,6.0,6.0,95,0.00,,,0.00,Wunderground v.1.15,2013-06-16 10:09:00,
2013-06-16 05:14:00,65.8,64.6,29.86,West,279,5.0,7.0,96,0.00,,,0.00,Wunderground v.1.15,2013-06-16 10:14:00,
2013-06-16 05:19:00,65.7,64.5,29.87,WNW,292,4.0,7.0,96,0.00,,,0.00,Wunderground v.1.15,2013-06-16 10:19:00,
2013-06-16 05:24:00,65.6,64.4,29.87,WNW,287,7.0,8.0,96,0.00,,,0.00,Wunderground v.1.15,2013-06-16 10:24:00,
2013-06-16 05:29:00,65.5,64.3,29.87,WNW,284,4.0,8.0,96,0.00,,,0.00,Wunderground v.1.15,2013-06-16 10:29:00,
2013-06-16 05:34:00,65.4,64.2,29.87,West,274,9.0,9.0,96,0.00,,,0.00,Wunderground v.1.15,2013-06-16 10:34:00,
2013-06-16 05:39:00,65.4,64.2,29.87,West,276,5.0,9.0,96,0.00,,,0.00,Wunderground v.1.15,2013-06-16 10:39:00,
2013-06-16 05:44:00,65.3,64.1,29.87,WNW,292,5.0,6.0,96,0.00,,,0.00,Wunderground v.1.15,2013-06-16 10:44:00,
2013-06-16 05:49:00,65.2,64.0,29.87,West,271,6.0,8.0,96,0.00,,,0.00,Wunderground v.1.15,2013-06-16 10:49:00,
2013-06-16 05:54:00,65.2,64.0,29.87,WNW,288,4.0,8.0,96,0.00,,,0.00,Wunderground v.1.15,2013-06-16 10:54:00,
2013-06-16 05:59:00,65.2,64.3,29.87,WNW,286,6.0,8.0,97,0.00,,,0.00,Wunderground v.1.15,2013-06-16 10:59:00,
2013-06-16 06:04:00,65.3,64.4,29.87,West,269,5.0,7.0,97,0.00,,,0.00,Wunderground v.1.15,2013-06-16 11:04:00,
2013-06-16 06:09:00,65.4,64.5,29.87,West,269,8.0,9.0,97,0.00,,,0.00,Wunderground v.1.15,2013-06-16 11:09:00,
2013-06-16 06:14:00,65.6,64.7,29.87,West,279,8.0,9.0,97,0.00,,,0.00,Wunderground v.1.15,2013-06-16 11:14:00,
2013-06-16 06:19:00,65.8,64.9,29.87,WNW,285,6.0,10.0,97,0.00,,,0.00,Wunderground v.1.15,2013-06-16 11:19:00,
2013-06-16 06:24:00,65.8,64.9,29.87,WNW,300,4.0,9.0,97,0.00,,,0.00,Wunderground v.1.15,2013-06-16 11:24:00,
2013-06-16 06:29:00,66.0,65.1,29.87,NW,305,7.0,9.0,97,0.00,,,0.00,Wunderground v.1.15,2013-06-16 11:29:00,
2013-06-16 06:34:00,66.1,65.2,29.87,WNW,295,4.0,9.0,97,0.00,,,0.00,Wunderground v.1.15,2013-06-16 11:34:00,
2013-06-16 06:39:00,66.2,65.3,29.87,WNW,294,9.0,10.0,97,0.00,,,0.00,Wunderground v.1.15,2013-06-16 11:39:00,
2013-06-16 06:44:00,66.3,65.4,29.87,WNW,296,7.0,9.0,97,0.00,,,0.00,Wunderground v.1.15,2013-06-16 11:44:00,
2013-06-16 06:49:00,66.5,65.6,29.87,NW,313,5.0,10.0,97,0.00,,,0.00,Wunderground v.1.15,2013-06-16 11:49:00,
2013-06-16 06:54:00,66.6,65.7,29.87,WNW,290,6.0,9.0,97,0.00,,,0.00,Wunderground v.1.15,2013-06-16 11:54:00,
2013-06-16 06:59:00,66.8,65.9,29.87,NW,309,8.0,10.0,97,0.00,,,0.00,Wunderground v.1.15,2013-06-16 11:59:00,
2013-06-16 07:08:00,67.1,66.2,29.88,NW,311,8.0,9.0,97,0.00,,,0.00,Wunderground v.1.15,2013-06-16 12:08:00,
2013-06-16 07:13:00,67.3,66.4,29.88,NW,307,7.0,10.0,97,0.00,,,0.00,Wunderground v.1.15,2013-06-16 12:13:00,
2013-06-16 07:18:00,67.4,66.5,29.88,WNW,292,6.0,11.0,97,0.00,,,0.00,Wunderground v.1.15,2013-06-16 12:18:00,
2013-06-16 07:23:00,67.6,66.7,29.88,NW,313,6.0,9.0,97,0.00,,,0.00,Wunderground v.1.15,2013-06-16 12:23:00,
2013-06-16 07:28:00,67.8,66.9,29.88,NW,318,3.0,10.0,97,0.00,,,0.00,Wunderground v.1.15,2013-06-16 12:28:00,
2013-06-16 07:33:00,68.0,66.8,29.88,NW,311,6.0,9.0,96,0.00,,,0.00,Wunderground v.1.15,2013-06-16 12:33:00,
2013-06-16 07:38:00,68.2,67.0,29.88,WNW,300,8.0,11.0,96,0.00,,,0.00,Wunderground v.1.15,2013-06-16 12:38:00,
2013-06-16 07:43:00,68.3,67.1,29.88,WNW,294,9.0,9.0,96,0.00,,,0.00,Wunderground v.1.15,2013-06-16 12:43:00,
2013-06-16 07:48:00,68.5,67.3,29.89,NNW,330,7.0,11.0,96,0.00,,,0.00,Wunderground v.1.15,2013-06-16 12:48:00,
2013-06-16 07:53:00,68.7,67.5,29.89,WNW,299,5.0,7.0,96,0.00,,,0.00,Wunderground v.1.15,2013-06-16 12:53:00,
2013-06-16 07:58:00,69.0,67.5,29.89,NNW,331,10.0,10.0,95,0.00,,,0.00,Wunderground v.1.15,2013-06-16 12:58:00,
2013-06-16 08:03:00,69.0,67.5,29.89,NNW,333,5.0,6.0,95,0.00,,,0.00,Wunderground v.1.15,2013-06-16 13:03:00,
2013-06-16 08:08:00,69.3,67.8,29.89,NNW,331,5.0,7.0,95,0.00,,,0.00,Wunderground v.1.15,2013-06-16 13:08:00,
2013-06-16 08:14:00,69.6,67.8,29.89,NNW,346,8.0,8.0,94,0.00,,,0.00,Wunderground v.1.15,2013-06-16 13:14:00,
2013-06-16 08:19:00,69.9,68.1,29.89,NW,323,4.0,8.0,94,0.00,,,0.00,Wunderground v.1.15,2013-06-16 13:19:00,
2013-06-16 08:24:00,70.3,67.9,29.89,NNW,331,5.0,10.0,92,0.00,,,0.00,Wunderground v.1.15,2013-06-16 13:24:00,
2013-06-16 08:29:00,70.4,67.6,29.89,NNW,341,6.0,10.0,91,0.00,,,0.00,Wunderground v.1.15,2013-06-16 13:29:00,
2013-06-16 08:34:00,70.5,67.7,29.89,WNW,300,7.0,7.0,91,0.00,,,0.00,Wunderground v.1.15,2013-06-16 13:34:00,
2013-06-16 08:39:00,70.9,67.8,29.89,North,355,7.0,9.0,90,0.00,,,0.00,Wunderground v.1.15,2013-06-16 13:39:00,
2013-06-16 08:44:00,71.1,67.7,29.89,North,355,5.0,6.0,89,0.00,,,0.00,Wunderground v.1.15,2013-06-16 13:44:00,
2013-06-16 08:49:00,71.1,67.7,29.89,North,360,6.0,7.0,89,0.00,,,0.00,Wunderground v.1.15,2013-06-16 13:49:00,
2013-06-16 08:54:00,71.3,67.9,29.89,North,355,5.0,6.0,89,0.00,,,0.00,Wunderground v.1.15,2013-06-16 13:54:00,
2013-06-16 08:59:00,71.6,67.5,29.89,North,355,5.0,7.0,87,0.00,,,0.00,Wunderground v.1.15,2013-06-16 13:59:00,
2013-06-16 09:04:00,71.9,67.8,29.89,North,350,4.0,6.0,87,0.00,,,0.00,Wunderground v.1.15,2013-06-16 14:04:00,
2013-06-16 09:09:00,72.1,68.0,29.89,North,355,5.0,6.0,87,0.00,,,0.00,Wunderground v.1.15,2013-06-16 14:09:00,
2013-06-16 09:22:00,73.1,68.0,29.89,NNW,331,5.0,5.0,84,0.00,,,0.00,Wunderground v.1.15,2013-06-16 14:22:00,
2013-06-16 09:27:00,73.5,68.0,29.89,NNW,342,4.0,7.0,83,0.00,,,0.00,Wunderground v.1.15,2013-06-16 14:27:00,
2013-06-16 09:40:00,74.2,67.6,29.89,North,360,4.0,6.0,80,0.00,,,0.00,Wunderground v.1.15,2013-06-16 14:40:00,
2013-06-16 09:45:00,74.5,68.3,29.89,North,5,4.0,6.0,81,0.00,,,0.00,Wunderground v.1.15,2013-06-16 14:45:00,
2013-06-16 09:50:00,74.7,68.1,29.90,NNE,15,4.0,8.0,80,0.00,,,0.00,Wunderground v.1.15,2013-06-16 14:50:00,
2013-06-16 09:55:00,74.8,68.2,29.90,NE,42,1.0,5.0,80,0.00,,,0.00,Wunderground v.1.15,2013-06-16 14:55:00,
2013-06-16 10:00:00,75.1,67.4,29.90,NNW,344,1.0,4.0,77,0.00,,,0.00,Wunderground v.1.15,2013-06-16 15:00:00,
2013-06-16 10:05:00,75.3,68.0,29.90,East,87,1.0,4.0,78,0.00,,,0.00,Wunderground v.1.15,2013-06-16 15:05:00,
2013-06-16 10:10:00,76.0,67.9,29.90,North,355,6.0,6.0,76,0.00,,,0.00,Wunderground v.1.15,2013-06-16 15:10:00,
2013-06-16 10:15:00,76.4,67.1,29.90,North,5,2.0,4.0,73,0.00,,,0.00,Wunderground v.1.15,2013-06-16 15:15:00,
2013-06-16 10:20:00,76.6,66.9,29.90,North,355,0.0,4.0,72,0.00,,,0.00,Wunderground v.1.15,2013-06-16 15:20:00,
2013-06-16 10:31:00,77.8,68.4,29.90,NE,43,2.0,4.0,73,0.00,,,0.00,Wunderground v.1.15,2013-06-16 15:31:00,
2013-06-16 10:42:00,78.7,67.2,29.89,East,84,0.0,1.0,68,0.00,,,0.00,Wunderground v.1.15,2013-06-16 15:42:00,
2013-06-16 10:47:00,78.8,67.3,29.89,NNW,346,2.0,3.0,68,0.00,,,0.00,Wunderground v.1.15,2013-06-16 15:47:00,
2013-06-16 10:52:00,78.9,66.1,29.89,NNE,28,0.0,2.0,65,0.00,,,0.00,Wunderground v.1.15,2013-06-16 15:52:00,
2013-06-16 10:58:00,79.4,66.6,29.89,North,10,2.0,4.0,65,0.00,,,0.00,Wunderground v.1.15,2013-06-16 15:58:00,
2013-06-16 11:10:00,79.2,63.6,29.90,North,360,6.0,6.0,59,0.00,,,0.00,Wunderground v.1.15,2013-06-16 16:10:00,
2013-06-16 11:21:00,79.1,63.1,29.90,North,360,1.0,7.0,58,0.00,,,0.00,Wunderground v.1.15,2013-06-16 16:21:00,
2013-06-16 11:26:00,79.4,63.3,29.90,North,360,3.0,3.0,58,0.00,,,0.00,Wunderground v.1.15,2013-06-16 16:26:00,
2013-06-16 11:31:00,79.7,59.4,29.90,North,355,3.0,5.0,50,0.00,,,0.00,Wunderground v.1.15,2013-06-16 16:31:00,
2013-06-16 11:42:00,80.9,63.2,29.90,ENE,74,1.0,2.0,55,0.00,,,0.00,Wunderground v.1.15,2013-06-16 16:42:00,
2013-06-16 11:47:00,81.3,63.6,29.89,NNE,26,4.0,7.0,55,0.00,,,0.00,Wunderground v.1.15,2013-06-16 16:47:00,
2013-06-16 11:53:00,81.3,62.0,29.89,NNE,13,4.0,4.0,52,0.00,,,0.00,Wunderground v.1.15,2013-06-16 16:53:00,
2013-06-16 11:58:00,81.1,62.3,29.89,NNE,15,1.0,6.0,53,0.00,,,0.00,Wunderground v.1.15,2013-06-16 16:58:00,
2013-06-16 12:03:00,81.1,61.3,29.89,NW,323,1.0,3.0,51,0.00,,,0.00,Wunderground v.1.15,2013-06-16 17:03:00,
2013-06-16 12:08:00,81.0,60.6,29.89,North,355,3.0,6.0,50,0.00,,,0.00,Wunderground v.1.15,2013-06-16 17:08:00,
2013-06-16 12:20:00,81.8,59.6,29.90,WNW,297,0.0,8.0,47,0.00,,,0.00,Wunderground v.1.15,2013-06-16 17:20:00,
2013-06-16 12:25:00,82.0,61.0,29.89,NNW,333,1.0,2.0,49,0.00,,,0.00,Wunderground v.1.15,2013-06-16 17:25:00,
2013-06-16 12:30:00,82.0,61.0,29.90,North,355,4.0,8.0,49,0.00,,,0.00,Wunderground v.1.15,2013-06-16 17:30:00,
2013-06-16 12:35:00,81.7,60.7,29.90,NNW,337,4.0,7.0,49,0.00,,,0.00,Wunderground v.1.15,2013-06-16 17:35:00,
2013-06-16 12:40:00,81.7,58.3,29.90,WSW,244,1.0,7.0,45,0.00,,,0.00,Wunderground v.1.15,2013-06-16 17:40:00,
2013-06-16 12:45:00,81.7,59.5,29.90,North,360,5.0,7.0,47,0.00,,,0.00,Wunderground v.1.15,2013-06-16 17:45:00,
2013-06-16 12:50:00,81.8,60.2,29.90,North,360,4.0,9.0,48,0.00,,,0.00,Wunderground v.1.15,2013-06-16 17:50:00,
2013-06-16 12:55:00,82.2,63.4,29.90,North,5,5.0,7.0,53,0.00,,,0.00,Wunderground v.1.15,2013-06-16 17:55:00,
2013-06-16 13:00:00,82.2,56.8,29.89,North,360,4.0,5.0,42,0.00,,,0.00,Wunderground v.1.15,2013-06-16 18:00:00,
2013-06-16 13:05:00,82.3,60.1,29.89,NE,40,1.0,7.0,47,0.00,,,0.00,Wunderground v.1.15,2013-06-16 18:05:00,
2013-06-16 13:10:00,82.8,58.7,29.89,NNE,17,6.0,8.0,44,0.00,,,0.00,Wunderground v.1.15,2013-06-16 18:10:00,
2013-06-16 13:16:00,82.6,57.2,29.89,North,355,1.0,5.0,42,0.00,,,0.00,Wunderground v.1.15,2013-06-16 18:16:00,
2013-06-16 13:21:00,82.6,59.1,29.89,WNW,290,5.0,8.0,45,0.00,,,0.00,Wunderground v.1.15,2013-06-16 18:21:00,
2013-06-16 13:26:00,82.5,57.1,29.89,WNW,288,7.0,9.0,42,0.00,,,0.00,Wunderground v.1.15,2013-06-16 18:26:00,
2013-06-16 13:31:00,82.5,60.2,29.89,WNW,285,4.0,9.0,47,0.00,,,0.00,Wunderground v.1.15,2013-06-16 18:31:00,
2013-06-16 13:36:00,82.6,59.7,29.88,NW,309,4.0,7.0,46,0.00,,,0.00,Wunderground v.1.15,2013-06-16 18:36:00,
2013-06-16 13:42:00,82.8,58.0,29.88,NW,308,7.0,7.0,43,0.00,,,0.00,Wunderground v.1.15,2013-06-16 18:42:00,
2013-06-16 13:47:00,82.7,55.2,29.88,WSW,248,3.0,9.0,39,0.00,,,0.00,Wunderground v.1.15,2013-06-16 18:47:00,
2013-06-16 13:52:00,82.6,57.2,29.88,WNW,301,6.0,6.0,42,0.00,,,0.00,Wunderground v.1.15,2013-06-16 18:52:00,
2013-06-16 13:57:00,82.6,56.5,29.88,West,263,2.0,8.0,41,0.00,,,0.00,Wunderground v.1.15,2013-06-16 18:57:00,
2013-06-16 14:10:00,83.0,59.5,29.89,NW,305,6.0,8.0,45,0.00,,,0.00,Wunderground v.1.15,2013-06-16 19:10:00,
2013-06-16 14:15:00,83.0,56.2,29.89,WNW,298,8.0,8.0,40,0.00,,,0.00,Wunderground v.1.15,2013-06-16 19:15:00,
2013-06-16 14:20:00,83.0,55.5,29.88,NW,308,7.0,10.0,39,0.00,,,0.00,Wunderground v.1.15,2013-06-16 19:20:00,
2013-06-16 14:25:00,83.3,57.8,29.88,NNW,342,5.0,11.0,42,0.00,,,0.00,Wunderground v.1.15,2013-06-16 19:25:00,
2013-06-16 14:30:00,83.4,55.1,29.88,WSW,246,6.0,11.0,38,0.00,,,0.00,Wunderground v.1.15,2013-06-16 19:30:00,
2013-06-16 14:35:00,83.6,53.8,29.88,South,186,1.0,8.0,36,0.00,,,0.00,Wunderground v.1.15,2013-06-16 19:35:00,
2013-06-16 14:40:00,83.8,54.0,29.88,North,351,3.0,8.0,36,0.00,,,0.00,Wunderground v.1.15,2013-06-16 19:40:00,
2013-06-16 14:45:00,84.0,56.4,29.88,NW,325,7.0,8.0,39,0.00,,,0.00,Wunderground v.1.15,2013-06-16 19:45:00,
2013-06-16 14:50:00,84.2,55.1,29.88,West,271,5.0,13.0,37,0.00,,,0.00,Wunderground v.1.15,2013-06-16 19:50:00,
2013-06-16 14:55:00,84.2,54.4,29.88,West,261,8.0,8.0,36,0.00,,,0.00,Wunderground v.1.15,2013-06-16 19:55:00,
2013-06-16 15:00:00,84.3,55.2,29.88,West,281,6.0,6.0,37,0.00,,,0.00,Wunderground v.1.15,2013-06-16 20:00:00,
2013-06-16 15:05:00,84.2,53.6,29.88,NNW,340,2.0,5.0,35,0.00,,,0.00,Wunderground v.1.15,2013-06-16 20:05:00,
2013-06-16 15:10:00,84.3,52.1,29.88,North,360,7.0,7.0,33,0.00,,,0.00,Wunderground v.1.15,2013-06-16 20:10:00,
2013-06-16 15:15:00,84.4,53.0,29.88,NNW,338,6.0,7.0,34,0.00,,,0.00,Wunderground v.1.15,2013-06-16 20:15:00,
2013-06-16 15:20:00,84.4,55.3,29.88,NW,304,7.0,8.0,37,0.00,,,0.00,Wunderground v.1.15,2013-06-16 20:20:00,
2013-06-16 15:25:00,84.5,53.0,29.88,NW,323,5.0,12.0,34,0.00,,,0.00,Wunderground v.1.15,2013-06-16 20:25:00,
2013-06-16 15:30:00,84.6,52.3,29.88,WNW,291,10.0,12.0,33,0.00,,,0.00,Wunderground v.1.15,2013-06-16 20:30:00,
2013-06-16 15:35:00,84.6,53.9,29.88,NW,304,5.0,11.0,35,0.00,,,0.00,Wunderground v.1.15,2013-06-16 20:35:00,
2013-06-16 15:40:00,84.7,54.8,29.88,NW,315,4.0,11.0,36,0.00,,,0.00,Wunderground v.1.15,2013-06-16 20:40:00,
2013-06-16 15:45:00,84.8,54.1,29.88,NNW,331,7.0,10.0,35,0.00,,,0.00,Wunderground v.1.15,2013-06-16 20:45:00,
2013-06-16 15:50:00,84.8,52.5,29.88,NNW,327,8.0,11.0,33,0.00,,,0.00,Wunderground v.1.15,2013-06-16 20:50:00,
2013-06-16 15:55:00,84.7,54.8,29.88,WNW,296,8.0,12.0,36,0.00,,,0.00,Wunderground v.1.15,2013-06-16 20:55:00,
2013-06-16 16:00:00,84.9,54.2,29.88,NW,312,8.0,8.0,35,0.00,,,0.00,Wunderground v.1.15,2013-06-16 21:00:00,
2013-06-16 16:05:00,84.9,53.4,29.88,NNW,342,8.0,9.0,34,0.00,,,0.00,Wunderground v.1.15,2013-06-16 21:05:00,
2013-06-16 16:12:00,85.0,54.3,29.88,NNW,336,10.0,10.0,35,0.00,,,0.00,Wunderground v.1.15,2013-06-16 21:12:00,
2013-06-16 16:17:00,84.9,51.7,29.88,NW,322,6.0,11.0,32,0.00,,,0.00,Wunderground v.1.15,2013-06-16 21:17:00,
2013-06-16 16:22:00,84.8,54.1,29.88,NNW,346,8.0,8.0,35,0.00,,,0.00,Wunderground v.1.15,2013-06-16 21:22:00,
2013-06-16 16:27:00,84.7,53.2,29.87,NNW,340,8.0,11.0,34,0.00,,,0.00,Wunderground v.1.15,2013-06-16 21:27:00,
2013-06-16 16:32:00,84.5,53.8,29.87,NNW,335,7.0,8.0,35,0.00,,,0.00,Wunderground v.1.15,2013-06-16 21:32:00,
2013-06-16 16:37:00,84.3,52.9,29.88,North,355,7.0,11.0,34,0.00,,,0.00,Wunderground v.1.15,2013-06-16 21:37:00,
2013-06-16 16:42:00,84.5,53.8,29.87,North,10,3.0,6.0,35,0.00,,,0.00,Wunderground v.1.15,2013-06-16 21:42:00,
2013-06-16 16:47:00,84.8,50.8,29.87,NNW,347,5.0,7.0,31,0.00,,,0.00,Wunderground v.1.15,2013-06-16 21:47:00,
2013-06-16 16:52:00,84.9,54.2,29.87,North,355,8.0,11.0,35,0.00,,,0.00,Wunderground v.1.15,2013-06-16 21:52:00,
2013-06-16 16:57:00,85.0,53.5,29.87,North,355,8.0,12.0,34,0.00,,,0.00,Wunderground v.1.15,2013-06-16 21:57:00,
2013-06-16 17:02:00,84.8,52.5,29.87,NW,319,7.0,7.0,33,0.00,,,0.00,Wunderground v.1.15,2013-06-16 22:02:00,
2013-06-16 17:07:00,84.7,51.6,29.87,NNW,348,5.0,10.0,32,0.00,,,0.00,Wunderground v.1.15,2013-06-16 22:07:00,
2013-06-16 17:12:00,84.8,54.9,29.87,North,11,2.0,5.0,36,0.00,,,0.00,Wunderground v.1.15,2013-06-16 22:12:00,
2013-06-16 17:17:00,84.9,52.6,29.87,NNW,332,6.0,7.0,33,0.00,,,0.00,Wunderground v.1.15,2013-06-16 22:17:00,
2013-06-16 17:22:00,84.7,52.4,29.87,NW,325,5.0,8.0,33,0.00,,,0.00,Wunderground v.1.15,2013-06-16 22:22:00,
2013-06-16 17:27:00,84.5,53.8,29.87,NNW,332,7.0,10.0,35,0.00,,,0.00,Wunderground v.1.15,2013-06-16 22:27:00,
2013-06-16 17:32:00,84.5,52.2,29.87,NNW,332,6.0,7.0,33,0.00,,,0.00,Wunderground v.1.15,2013-06-16 22:32:00,
2013-06-16 17:37:00,84.6,52.3,29.87,NNW,330,6.0,9.0,33,0.00,,,0.00,Wunderground v.1.15,2013-06-16 22:37:00,
2013-06-16 17:42:00,84.5,52.2,29.87,NNW,327,4.0,6.0,33,0.00,,,0.00,Wunderground v.1.15,2013-06-16 22:42:00,
2013-06-16 17:47:00,84.5,53.0,29.87,North,355,6.0,8.0,34,0.00,,,0.00,Wunderground v.1.15,2013-06-16 22:47:00,
2013-06-16 17:52:00,84.6,53.1,29.86,North,355,5.0,5.0,34,0.00,,,0.00,Wunderground v.1.15,2013-06-16 22:52:00,
2013-06-16 17:57:00,84.7,51.6,29.86,NNE,17,6.0,8.0,32,0.00,,,0.00,Wunderground v.1.15,2013-06-16 22:57:00,
2013-06-16 18:03:00,84.6,52.3,29.86,NNW,331,8.0,8.0,33,0.00,,,0.00,Wunderground v.1.15,2013-06-16 23:03:00,
2013-06-16 18:08:00,84.4,50.5,29.86,North,360,6.0,11.0,31,0.00,,,0.00,Wunderground v.1.15,2013-06-16 23:08:00,
2013-06-16 18:13:00,84.3,52.1,29.86,NNE,13,11.0,11.0,33,0.00,,,0.00,Wunderground v.1.15,2013-06-16 23:13:00,
2013-06-16 18:18:00,84.2,50.3,29.85,North,355,3.0,11.0,31,0.00,,,0.00,Wunderground v.1.15,2013-06-16 23:18:00,
2013-06-16 18:23:00,84.3,51.2,29.86,NNE,26,2.0,5.0,32,0.00,,,0.00,Wunderground v.1.15,2013-06-16 23:23:00,
2013-06-16 18:28:00,84.3,52.1,29.86,North,355,7.0,9.0,33,0.00,,,0.00,Wunderground v.1.15,2013-06-16 23:28:00,
2013-06-16 18:33:00,84.1,51.9,29.86,NNW,348,6.0,9.0,33,0.00,,,0.00,Wunderground v.1.15,2013-06-16 23:33:00,
2013-06-16 18:38:00,83.9,52.5,29.86,NNW,338,9.0,11.0,34,0.00,,,0.00,Wunderground v.1.15,2013-06-16 23:38:00,
2013-06-16 18:43:00,83.6,49.8,29.86,NNW,330,8.0,10.0,31,0.00,,,0.00,Wunderground v.1.15,2013-06-16 23:43:00,
2013-06-16 18:48:00,83.5,51.4,29.86,North,355,6.0,11.0,33,0.00,,,0.00,Wunderground v.1.15,2013-06-16 23:48:00,
2013-06-16 18:53:00,83.3,51.2,29.86,North,350,5.0,7.0,33,0.00,,,0.00,Wunderground v.1.15,2013-06-16 23:53:00,
2013-06-16 18:58:00,82.7,53.0,29.86,North,9,5.0,8.0,36,0.00,,,0.00,Wunderground v.1.15,2013-06-16 23:58:00,
2013-06-16 19:03:00,82.1,51.7,29.86,NNE,17,6.0,8.0,35,0.00,,,0.00,Wunderground v.1.15,2013-06-17 00:03:00,
2013-06-16 19:08:00,82.1,51.7,29.86,North,360,7.0,10.0,35,0.00,,,0.00,Wunderground v.1.15,2013-06-17 00:08:00,
2013-06-16 19:13:00,82.3,53.4,29.86,North,355,4.0,7.0,37,0.00,,,0.00,Wunderground v.1.15,2013-06-17 00:13:00,
2013-06-16 19:18:00,82.3,54.2,29.86,NNW,346,4.0,9.0,38,0.00,,,0.00,Wunderground v.1.15,2013-06-17 00:18:00,
2013-06-16 19:23:00,82.2,54.8,29.86,North,351,7.0,8.0,39,0.00,,,0.00,Wunderground v.1.15,2013-06-17 00:23:00,
2013-06-16 19:28:00,82.1,54.0,29.86,North,5,6.0,9.0,38,0.00,,,0.00,Wunderground v.1.15,2013-06-17 00:28:00,
2013-06-16 19:33:00,82.0,54.6,29.86,NNE,27,5.0,5.0,39,0.00,,,0.00,Wunderground v.1.15,2013-06-17 00:33:00,
2013-06-16 19:38:00,81.8,53.7,29.85,North,9,4.0,7.0,38,0.00,,,0.00,Wunderground v.1.15,2013-06-17 00:38:00,
2013-06-16 19:43:00,81.5,54.2,29.85,NNE,18,4.0,5.0,39,0.00,,,0.00,Wunderground v.1.15,2013-06-17 00:43:00,
2013-06-16 19:48:00,81.2,55.3,29.85,NNE,24,5.0,6.0,41,0.00,,,0.00,Wunderground v.1.15,2013-06-17 00:48:00,
2013-06-16 19:53:00,80.9,54.3,29.85,NNE,14,5.0,5.0,40,0.00,,,0.00,Wunderground v.1.15,2013-06-17 00:53:00,
2013-06-16 19:58:00,80.6,56.0,29.85,North,360,1.0,5.0,43,0.00,,,0.00,Wunderground v.1.15,2013-06-17 00:58:00,
2013-06-16 20:04:00,80.3,55.8,29.85,NNE,22,0.0,3.0,43,0.00,,,0.00,Wunderground v.1.15,2013-06-17 01:04:00,
2013-06-16 20:09:00,79.9,56.0,29.85,NNE,22,1.0,1.0,44,0.00,,,0.00,Wunderground v.1.15,2013-06-17 01:09:00,
2013-06-16 20:14:00,79.5,55.7,29.85,NNE,22,1.0,1.0,44,0.00,,,0.00,Wunderground v.1.15,2013-06-17 01:14:00,
2013-06-16 20:19:00,79.1,56.5,29.85,NNE,22,1.0,1.0,46,0.00,,,0.00,Wunderground v.1.15,2013-06-17 01:19:00,
2013-06-16 20:24:00,78.7,55.6,29.85,NNE,22,1.0,1.0,45,0.00,,,0.00,Wunderground v.1.15,2013-06-17 01:24:00,
2013-06-16 20:29:00,78.2,54.5,29.85,NNE,22,1.0,1.0,44,0.00,,,0.00,Wunderground v.1.15,2013-06-17 01:29:00,
2013-06-16 20:34:00,77.8,54.8,29.85,NNE,22,0.0,1.0,45,0.00,,,0.00,Wunderground v.1.15,2013-06-17 01:34:00,
2013-06-16 20:39:00,77.5,54.5,29.85,NNE,22,0.0,1.0,45,0.00,,,0.00,Wunderground v.1.15,2013-06-17 01:39:00,
2013-06-16 20:44:00,77.3,53.7,29.85,NNE,22,0.0,1.0,44,0.00,,,0.00,Wunderground v.1.15,2013-06-17 01:44:00,
2013-06-16 20:49:00,77.1,53.5,29.86,NNE,22,0.0,1.0,44,0.00,,,0.00,Wunderground v.1.15,2013-06-17 01:49:00,
2013-06-16 20:54:00,77.0,53.4,29.86,NNE,22,0.0,0.0,44,0.00,,,0.00,Wunderground v.1.15,2013-06-17 01:54:00,
2013-06-16 20:59:00,76.6,57.7,29.86,NNE,22,0.0,0.0,52,0.00,,,0.00,Wunderground v.1.15,2013-06-17 01:59:00,
2013-06-16 21:04:00,76.0,53.1,29.87,NNE,22,0.0,0.0,45,0.00,,,0.00,Wunderground v.1.15,2013-06-17 02:04:00,
2013-06-16 21:09:00,75.8,52.9,29.87,NNE,22,0.0,0.0,45,0.00,,,0.00,Wunderground v.1.15,2013-06-17 02:09:00,
2013-06-16 21:14:00,75.7,52.2,29.87,NNE,22,0.0,0.0,44,0.00,,,0.00,Wunderground v.1.15,2013-06-17 02:14:00,
2013-06-16 21:19:00,75.7,52.2,29.88,NNE,22,0.0,0.0,44,0.00,,,0.00,Wunderground v.1.15,2013-06-17 02:19:00,
2013-06-16 21:24:00,75.7,52.2,29.88,NNE,22,0.0,0.0,44,0.00,,,0.00,Wunderground v.1.15,2013-06-17 02:24:00,
2013-06-16 21:29:00,75.6,52.1,29.88,NNE,22,0.0,0.0,44,0.00,,,0.00,Wunderground v.1.15,2013-06-17 02:29:00,
2013-06-16 21:34:00,75.5,52.7,29.88,NNE,22,0.0,0.0,45,0.00,,,0.00,Wunderground v.1.15,2013-06-17 02:34:00,
2013-06-16 21:39:00,75.3,51.9,29.88,NNE,22,0.0,0.0,44,0.00,,,0.00,Wunderground v.1.15,2013-06-17 02:39:00,
2013-06-16 21:45:00,75.3,51.9,29.87,NNE,22,0.0,0.0,44,0.00,,,0.00,Wunderground v.1.15,2013-06-17 02:45:00,
2013-06-16 21:50:00,75.4,52.6,29.88,ESE,105,2.0,2.0,45,0.00,,,0.00,Wunderground v.1.15,2013-06-17 02:50:00,
2013-06-16 21:55:00,75.1,61.6,29.88,SSE,164,1.0,2.0,63,0.00,,,0.00,Wunderground v.1.15,2013-06-17 02:55:00,
2013-06-16 22:00:00,74.5,58.3,29.88,SSE,164,1.0,1.0,57,0.00,,,0.00,Wunderground v.1.15,2013-06-17 03:00:00,
2013-06-16 22:05:00,74.2,58.9,29.88,SSE,164,1.0,2.0,59,0.00,,,0.00,Wunderground v.1.15,2013-06-17 03:05:00,
2013-06-16 22:10:00,74.0,57.8,29.88,SSE,164,1.0,2.0,57,0.00,,,0.00,Wunderground v.1.15,2013-06-17 03:10:00,
2013-06-16 22:15:00,74.0,58.3,29.88,SSE,164,0.0,2.0,58,0.00,,,0.00,Wunderground v.1.15,2013-06-17 03:15:00,
2013-06-16 22:20:00,73.8,58.6,29.87,SSE,164,0.0,2.0,59,0.00,,,0.00,Wunderground v.1.15,2013-06-17 03:20:00,
2013-06-16 22:25:00,73.6,57.4,29.87,SSE,164,2.0,2.0,57,0.00,,,0.00,Wunderground v.1.15,2013-06-17 03:25:00,
2013-06-16 22:30:00,73.5,57.8,29.87,SSE,164,0.0,2.0,58,0.00,,,0.00,Wunderground v.1.15,2013-06-17 03:30:00,
2013-06-16 22:35:00,73.5,57.8,29.88,SSE,164,0.0,1.0,58,0.00,,,0.00,Wunderground v.1.15,2013-06-17 03:35:00,
2013-06-16 22:40:00,73.6,57.9,29.88,SSE,164,2.0,2.0,58,0.00,,,0.00,Wunderground v.1.15,2013-06-17 03:40:00,
2013-06-16 22:45:00,73.4,58.7,29.88,SSE,164,2.0,4.0,60,0.00,,,0.00,Wunderground v.1.15,2013-06-17 03:45:00,
2013-06-16 22:50:00,73.1,60.6,29.88,SSE,156,4.0,5.0,65,0.00,,,0.00,Wunderground v.1.15,2013-06-17 03:50:00,
2013-06-16 22:55:00,72.4,60.8,29.88,SSE,147,1.0,3.0,67,0.00,,,0.00,Wunderground v.1.15,2013-06-17 03:55:00,
2013-06-16 23:00:00,71.9,57.7,29.88,SSE,164,2.0,2.0,61,0.00,,,0.00,Wunderground v.1.15,2013-06-17 04:00:00,
2013-06-16 23:01:00,71.9,57.7,29.88,SSE,168,2.0,4.0,61,0.00,,,0.00,Wunderground v.1.15,2013-06-17 04:01:00,
2013-06-16 23:02:00,71.9,57.7,29.88,SSE,167,1.0,1.0,61,0.00,,,0.00,Wunderground v.1.15,2013-06-17 04:02:00,
2013-06-16 23:03:00,71.9,57.7,29.88,SSE,167,1.0,2.0,61,0.00,,,0.00,Wunderground v.1.15,2013-06-17 04:03:00,
2013-06-16 23:08:00,71.9,58.2,29.89,SSE,167,1.0,2.0,62,0.00,,,0.00,Wunderground v.1.15,2013-06-17 04:08:00,
2013-06-16 23:13:00,71.8,58.1,29.88,SSE,165,1.0,2.0,62,0.00,,,0.00,Wunderground v.1.15,2013-06-17 04:13:00,
2013-06-16 23:18:00,71.7,57.5,29.88,SSE,156,1.0,2.0,61,0.00,,,0.00,Wunderground v.1.15,2013-06-17 04:18:00,
2013-06-16 23:23:00,71.9,57.3,29.89,SSE,155,1.0,2.0,60,0.00,,,0.00,Wunderground v.1.15,2013-06-17 04:23:00,
2013-06-16 23:28:00,72.0,57.8,29.89,SSE,155,1.0,2.0,61,0.00,,,0.00,Wunderground v.1.15,2013-06-17 04:28:00,
2013-06-16 23:33:00,71.8,58.5,29.89,SSE,155,1.0,2.0,63,0.00,,,0.00,Wunderground v.1.15,2013-06-17 04:33:00,
2013-06-16 23:38:00,71.5,58.7,29.89,SSE,155,1.0,2.0,64,0.00,,,0.00,Wunderground v.1.15,2013-06-17 04:38:00,
2013-06-16 23:43:00,71.1,57.9,29.89,SSE,155,0.0,1.0,63,0.00,,,0.00,Wunderground v.1.15,2013-06-17 04:43:00,
2013-06-16 23:48:00,70.9,58.5,29.89,SSE,155,0.0,1.0,65,0.00,,,0.00,Wunderground v.1.15,2013-06-17 04:48:00,
2013-06-16 23:53:00,70.7,58.4,29.89,SSE,155,1.0,1.0,65,0.00,,,0.00,Wunderground v.1.15,2013-06-17 04:53:00,